Regional Weather Roundup
Issued by NWS

Home | Current Version | Previous Version | Text Only | Print | Product List | Glossary Off
Versions: 1 2 3 4 5 6 7 8 9 10 11 12 13 14 15 16 17 18 19 20 21 22 23 24 25 26 27 28 29 30 31 32 33 34 35 36 37 38 39 40 41 42 43 44 45 46 47 48 49 50

000
ASUS43 KIND 241309
RWRIN

WEATHER ROUNDUP FOR INDIANA
NATIONAL WEATHER SERVICE INDIANAPOLIS IN
900 AM EDT SUN SEP 24 2017

NOTE: "FAIR" INDICATES FEW OR NO CLOUDS BELOW 12,000 FEET WITH NO
SIGNIFICANT WEATHER AND/OR OBSTRUCTIONS TO VISIBILITY.

* - STATION DOES NOT REPORT WEATHER SUCH AS PRECIPITATION OR FOG.

+ - STATION NOT QUALITY CONTROLLED BY THE NATIONAL WEATHER SERVICE.
    USE DATA WITH CAUTION...ESPECIALLY DEWPOINT AND RELATIVE
    HUMIDITY OBSERVATIONS.

INZ001>003-010>013-019-020-241400-
NORTHWEST INDIANA

CITY           SKY/WX    TMP DP  RH WIND       PRES   REMARKS
GARY /AIRPORT/ SUNNY     72  64  78 SE3       30.11R
KNOX *+        SUNNY     66  63  88 SE3       30.12S
LA PORTE +     SUNNY     69  64  85 CALM      30.13S
MICHIGAN CITY+ SUNNY     72  63  73 CALM      30.12S
MONTICELLO +   SUNNY     69  64  85 E3        30.11F
RENSSELAER +   SUNNY     68  61  77 CALM      30.12R
VALPARAISO     SUNNY     70  66  87 E3        30.12S

$$

LMZ046-743>745-241400-
SOUTHERN LAKE MICHIGAN

STATION/POSITION TIME  TEMP    WIND        PRES    WAVE
                       AIR SEA DIR/SP/G            HT
                 (UTC) (F)     (DEG/KT/KT) (MB)    (FT)
BURNS HARBOR     1240   73     150/  7/ 10 1020.0R
MICHIGAN CITY    1240   72     130/  8/  9   N/A
5NW MICH CITY    1300   72 72  160/  8/ 10   N/A     1

$$

INZ004-005-014>016-021>024-241400-
NORTH CENTRAL INDIANA

CITY           SKY/WX    TMP DP  RH WIND       PRES   REMARKS
GOSHEN         SUNNY     70  60  70 CALM      30.14S
LOGANSPORT +   SUNNY     66  63  88 E5        30.13F
PERU/GRISSOM   SUNNY     69  62  78 SE3       30.12S
SOUTH BEND     SUNNY     68  64  87 E5        30.13F
WARSAW +       SUNNY     66  63  88 CALM      30.14S

$$

INZ006>009-017-018-025>027-241400-
NORTHEAST INDIANA

CITY           SKY/WX    TMP DP  RH WIND       PRES   REMARKS
AUBURN +       SUNNY     66  61  82 CALM      30.16S
FORT WAYNE     SUNNY     68  62  81 CALM      30.15S
HUNTINGTON +   SUNNY     66  63  89 CALM      30.14S
KENDALLVILLE + SUNNY     65  62  90 CALM      30.16S

$$

INZ028-029-035-036-043>045-051>053-241400-
WEST CENTRAL INDIANA

CITY           SKY/WX    TMP DP  RH WIND       PRES   REMARKS
CRAWFORDSVL +  SUNNY     66  66 100 CALM      30.12
GREENCASTLE +  SUNNY     68  63  83 CALM      30.12R FOG
LAFAYETTE      SUNNY     68  67  96 CALM      30.10F
TERRE HAUTE    SUNNY     70  65  84 CALM      30.10S

$$

INZ030>032-037>040-046>048-054>057-064-065-241400-
CENTRAL INDIANA

CITY           SKY/WX    TMP DP  RH WIND       PRES   REMARKS
CP ATTERBURY + SUNNY     63  63 100 CALM      30.12S FOG
FISHERS *+     SUNNY     64  64 100 CALM      30.12S
FRANKFORT +    CLOUDY    70  66  86 SE5       30.13F
GREENWOOD *+   SUNNY     72  65  76 E5        30.13S
INDIANAPOLIS   SUNNY     72  62  71 E5        30.11S
-EAGLE CREEK   SUNNY     71  62  73 E3        30.11S
KOKOMO +       SUNNY     68  62  81 CALM      30.14S
MARION +       SUNNY     66  61  82 CALM      30.14S
MT COMFORT *+  SUNNY     63  61  94 CALM      30.12S
SHELBYVILLE    SUNNY     69  61  75 CALM      30.11S
ZIONSVILLE +   SUNNY     67  64  89 E3        30.14S

$$

INZ033-034-041-042-049-050-058-059-241400-
EAST CENTRAL INDIANA

CITY           SKY/WX    TMP DP  RH WIND       PRES   REMARKS
MUNCIE         SUNNY     69  61  75 CALM      30.14S
RICHMOND +     SUNNY     68  59  73 E7        30.16R

$$

INZ060-061-067>069-081>083-085>088-241400-
SOUTHWEST INDIANA

CITY           SKY/WX    TMP DP  RH WIND       PRES   REMARKS
EVANSVILLE     SUNNY     71  65  81 NE3       30.07S
HUNTINGBURG +  SUNNY     67  66  97 CALM      30.08S FOG
WASHINGTON +   SUNNY     67  64  91 CALM      30.08S

$$

INZ062-063-066-070>080-084-089>092-241400-
SOUTH CENTRAL AND SOUTHEAST INDIANA

CITY           SKY/WX    TMP DP  RH WIND       PRES   REMARKS
BEDFORD +      SUNNY     66  64  94 CALM      30.09
BLOOMINGTON    SUNNY     69  63  81 CALM      30.11R
MADISON *+     SUNNY     70  63  78 E3        30.13R
NORTH VERNON + SUNNY     66  63  88 E3        30.11
SEYMOUR +      SUNNY     66  66 100 CALM      30.10S FOG

$$





USA.gov is the U.S. government's official web portal to all federal, state and local government web resources and services.